Time,TemperatureF,DewpointF,PressureIn,WindDirection,WindDirectionDegrees,WindSpeedMPH,WindSpeedGustMPH,Humidity,HourlyPrecipIn,Conditions,Clouds,dailyrainin,SolarRadiationWatts/m^2,SoftwareType,DateUTC
2013-03-12 00:00:00,27.2,24.1,29.80,WNW,300,2.4,4.6,88,0.00,RA,,0.00,0.0,WeatherDisplay:10.37,2013-03-12 05:00:00,
2013-03-12 00:05:00,27.2,24.1,29.80,WNW,301,0.0,1.2,88,0.00,RA,,0.00,0.0,WeatherDisplay:10.37,2013-03-12 05:05:00,
2013-03-12 00:10:00,27.2,24.1,29.80,NW,316,0.0,0.0,88,0.00,OVC,,0.00,0.0,WeatherDisplay:10.37,2013-03-12 05:10:00,
2013-03-12 00:15:00,27.2,24.1,29.81,WNW,292,0.0,1.2,88,0.00,OVC,,0.00,0.0,WeatherDisplay:10.37,2013-03-12 05:15:00,
2013-03-12 00:20:00,27.2,24.4,29.81,WNW,293,1.1,2.4,89,0.00,OVC,,0.00,0.0,WeatherDisplay:10.37,2013-03-12 05:20:00,
2013-03-12 00:25:00,27.2,24.4,29.81,West,265,1.0,3.6,89,0.00,OVC,,0.00,0.0,WeatherDisplay:10.37,2013-03-12 05:25:00,
2013-03-12 00:30:00,27.2,24.4,29.81,West,276,0.4,1.2,89,0.00,OVC,,0.00,0.0,WeatherDisplay:10.37,2013-03-12 05:30:00,
2013-03-12 00:35:00,27.2,24.4,29.81,West,277,0.5,4.6,89,0.00,OVC,,0.00,0.0,WeatherDisplay:10.37,2013-03-12 05:35:00,
2013-03-12 00:40:00,27.2,24.1,29.81,NNW,329,4.0,7.2,88,0.00,OVC,,0.00,0.0,WeatherDisplay:10.37,2013-03-12 05:40:00,
2013-03-12 00:45:00,27.2,24.1,29.81,West,267,4.2,7.2,88,0.00,OVC,,0.00,0.0,WeatherDisplay:10.37,2013-03-12 05:45:00,
2013-03-12 00:50:00,27.2,23.8,29.81,WNW,290,1.5,3.6,87,0.00,OVC,,0.00,0.0,WeatherDisplay:10.37,2013-03-12 05:50:00,
2013-03-12 00:55:00,27.2,23.8,29.81,WNW,286,1.6,6.0,87,0.00,OVC,,0.00,0.0,WeatherDisplay:10.37,2013-03-12 05:55:00,
2013-03-12 01:00:00,27.2,23.8,29.81,NW,306,0.5,4.6,87,0.00,OVC,,0.00,0.0,WeatherDisplay:10.37,2013-03-12 06:00:00,
2013-03-12 01:05:00,27.2,23.8,29.81,WNW,290,3.1,6.0,87,0.00,-SN,,0.00,0.0,WeatherDisplay:10.37,2013-03-12 06:05:00,
2013-03-12 01:10:00,27.2,23.8,29.81,NW,311,2.8,6.0,87,0.00,-SN,,0.00,0.0,WeatherDisplay:10.37,2013-03-12 06:10:00,
2013-03-12 01:15:00,27.2,23.8,29.81,WNW,290,0.9,4.6,87,0.00,-SN,,0.00,0.0,WeatherDisplay:10.37,2013-03-12 06:15:00,
2013-03-12 01:20:00,27.2,23.8,29.81,West,276,0.2,1.2,87,0.00,OVC,,0.00,0.0,WeatherDisplay:10.37,2013-03-12 06:20:00,
2013-03-12 01:25:00,27.2,23.8,29.81,WNW,283,1.0,3.6,87,0.00,OVC,,0.00,0.0,WeatherDisplay:10.37,2013-03-12 06:25:00,
2013-03-12 01:30:00,27.2,23.6,29.81,West,273,0.2,3.5,86,0.00,OVC,,0.00,0.0,WeatherDisplay:10.37,2013-03-12 06:30:00,
2013-03-12 01:35:00,27.2,23.6,29.81,WNW,292,3.8,4.8,86,0.00,OVC,,0.00,0.0,WeatherDisplay:10.37,2013-03-12 06:35:00,
2013-03-12 01:40:00,27.2,23.6,29.81,West,273,1.8,4.8,86,0.00,OVC,,0.00,0.0,WeatherDisplay:10.37,2013-03-12 06:40:00,
2013-03-12 01:45:00,27.2,23.6,29.81,WNW,291,2.4,3.6,86,0.00,-SN,,0.00,0.0,WeatherDisplay:10.37,2013-03-12 06:45:00,
2013-03-12 01:50:00,27.2,23.6,29.81,West,280,5.0,6.0,86,0.00,-SN,,0.00,0.0,WeatherDisplay:10.37,2013-03-12 06:50:00,
2013-03-12 01:55:00,27.2,23.6,29.81,West,266,4.6,8.4,86,0.00,-SN,,0.00,0.0,WeatherDisplay:10.37,2013-03-12 06:55:00,
2013-03-12 02:00:00,27.2,23.6,29.82,West,261,2.9,5.8,86,0.00,-SN,,0.00,0.0,WeatherDisplay:10.37,2013-03-12 07:00:00,
2013-03-12 02:05:00,27.2,23.6,29.82,West,281,4.6,7.2,86,0.00,-SN,,0.00,0.0,WeatherDisplay:10.37,2013-03-12 07:05:00,
2013-03-12 02:10:00,27.2,23.8,29.82,WSW,252,0.7,3.5,87,0.00,-SN,,0.00,0.0,WeatherDisplay:10.37,2013-03-12 07:10:00,
2013-03-12 02:15:00,27.2,23.6,29.82,West,264,3.3,4.8,86,0.00,-SN,,0.00,0.0,WeatherDisplay:10.37,2013-03-12 07:15:00,
2013-03-12 02:20:00,27.2,23.8,29.82,West,279,1.7,7.2,87,0.00,-SN,,0.00,0.0,WeatherDisplay:10.37,2013-03-12 07:20:00,
2013-03-12 02:25:00,27.2,23.8,29.82,West,261,2.2,4.8,87,0.00,-SN,,0.00,0.0,WeatherDisplay:10.37,2013-03-12 07:25:00,
2013-03-12 02:30:00,27.2,23.8,29.82,West,263,3.2,3.6,87,0.00,-SN,,0.00,0.0,WeatherDisplay:10.37,2013-03-12 07:30:00,
2013-03-12 02:35:00,27.2,23.8,29.82,West,259,3.5,4.8,87,0.00,-SN,,0.00,0.0,WeatherDisplay:10.37,2013-03-12 07:35:00,
2013-03-12 02:40:00,27.0,23.6,29.82,WSW,254,2.2,4.8,87,0.00,-SN,,0.00,0.0,WeatherDisplay:10.37,2013-03-12 07:40:00,
2013-03-12 02:45:00,27.0,23.9,29.82,WSW,257,4.1,10.4,88,0.00,-SN,,0.00,0.0,WeatherDisplay:10.37,2013-03-12 07:45:00,
2013-03-12 02:50:00,27.0,23.9,29.82,West,271,1.2,4.6,88,0.00,-SN,,0.00,0.0,WeatherDisplay:10.37,2013-03-12 07:50:00,
2013-03-12 02:55:00,26.9,24.1,29.82,West,273,0.9,2.4,89,0.00,-SN,,0.00,0.0,WeatherDisplay:10.37,2013-03-12 07:55:00,
2013-03-12 03:00:00,26.9,24.1,29.82,West,262,2.7,3.6,89,0.00,-SN,,0.00,0.0,WeatherDisplay:10.37,2013-03-12 08:00:00,
2013-03-12 03:05:00,26.7,23.9,29.82,West,274,2.7,3.6,89,0.00,-SN,,0.00,0.0,WeatherDisplay:10.37,2013-03-12 08:05:00,
2013-03-12 03:10:00,26.7,23.9,29.82,West,262,2.4,5.8,89,0.00,-SN,,0.00,0.0,WeatherDisplay:10.37,2013-03-12 08:10:00,
2013-03-12 03:15:00,26.7,24.2,29.82,WSW,255,2.7,3.6,90,0.00,-SN,,0.00,0.0,WeatherDisplay:10.37,2013-03-12 08:15:00,
2013-03-12 03:20:00,26.7,23.9,29.82,WSW,246,2.6,6.9,89,0.00,-SN,,0.00,0.0,WeatherDisplay:10.37,2013-03-12 08:20:00,
2013-03-12 03:25:00,26.7,23.9,29.82,WSW,246,4.2,6.0,89,0.00,BKN,,0.00,0.0,WeatherDisplay:10.37,2013-03-12 08:25:00,
2013-03-12 03:30:00,26.7,23.9,29.82,WSW,258,2.6,4.8,89,0.00,BKN,,0.00,0.0,WeatherDisplay:10.37,2013-03-12 08:30:00,
2013-03-12 03:35:00,26.7,24.2,29.82,WSW,258,0.2,4.6,90,0.00,BKN,,0.00,0.0,WeatherDisplay:10.37,2013-03-12 08:35:00,
2013-03-12 03:40:00,26.7,24.2,29.82,WSW,253,0.6,3.5,90,0.00,BKN,,0.00,0.0,WeatherDisplay:10.37,2013-03-12 08:40:00,
2013-03-12 03:45:00,26.6,24.1,29.82,West,266,0.0,2.3,90,0.00,BKN,,0.00,0.0,WeatherDisplay:10.37,2013-03-12 08:45:00,
2013-03-12 03:50:00,26.6,24.1,29.82,West,277,3.8,8.4,90,0.00,BKN,,0.00,0.0,WeatherDisplay:10.37,2013-03-12 08:50:00,
2013-03-12 03:55:00,26.4,23.9,29.82,WNW,293,4.3,6.0,90,0.00,BKN,,0.00,0.0,WeatherDisplay:10.37,2013-03-12 08:55:00,
2013-03-12 04:00:00,26.4,23.6,29.82,West,277,5.4,8.1,89,0.00,BKN,,0.00,0.0,WeatherDisplay:10.37,2013-03-12 09:00:00,
2013-03-12 04:05:00,26.4,23.6,29.82,WSW,254,4.8,7.2,89,0.00,BKN,,0.00,0.0,WeatherDisplay:10.37,2013-03-12 09:05:00,
2013-03-12 04:10:00,26.4,23.3,29.82,WNW,294,3.8,6.0,88,0.00,BKN,,0.00,0.0,WeatherDisplay:10.37,2013-03-12 09:10:00,
2013-03-12 04:15:00,26.4,23.1,29.82,West,265,4.4,6.9,87,0.00,BKN,,0.00,0.0,WeatherDisplay:10.37,2013-03-12 09:15:00,
2013-03-12 04:20:00,26.4,23.1,29.82,West,279,5.5,9.6,87,0.00,BKN,,0.00,0.0,WeatherDisplay:10.37,2013-03-12 09:20:00,
2013-03-12 04:25:00,26.4,23.1,29.82,West,262,6.4,8.4,87,0.00,BKN,,0.00,0.0,WeatherDisplay:10.37,2013-03-12 09:25:00,
2013-03-12 04:30:00,26.4,22.8,29.83,West,275,2.4,8.1,86,0.00,BKN,,0.00,0.0,WeatherDisplay:10.37,2013-03-12 09:30:00,
2013-03-12 04:35:00,26.3,22.7,29.83,West,272,3.3,6.0,86,0.00,BKN,,0.00,0.0,WeatherDisplay:10.37,2013-03-12 09:35:00,
2013-03-12 04:40:00,26.3,22.4,29.83,West,263,7.0,9.6,85,0.00,BKN,,0.00,0.0,WeatherDisplay:10.37,2013-03-12 09:40:00,
2013-03-12 04:45:00,26.3,22.4,29.83,West,278,4.6,9.6,85,0.00,BKN,,0.00,0.0,WeatherDisplay:10.37,2013-03-12 09:45:00,
2013-03-12 04:50:00,26.1,21.9,29.83,West,271,8.9,9.6,84,0.00,BKN,,0.00,0.0,WeatherDisplay:10.37,2013-03-12 09:50:00,
2013-03-12 04:55:00,26.1,21.9,29.83,WSW,251,1.2,6.9,84,0.00,BKN,,0.00,0.0,WeatherDisplay:10.37,2013-03-12 09:55:00,
2013-03-12 05:00:00,26.1,21.9,29.84,West,281,4.5,7.2,84,0.00,BKN,,0.00,0.0,WeatherDisplay:10.37,2013-03-12 10:00:00,
2013-03-12 05:05:00,26.1,21.9,29.84,West,270,2.6,4.8,84,0.00,BKN,,0.00,0.0,WeatherDisplay:10.37,2013-03-12 10:05:00,
2013-03-12 05:10:00,26.0,21.8,29.84,West,271,9.0,10.8,84,0.00,BKN,,0.00,0.0,WeatherDisplay:10.37,2013-03-12 10:10:00,
2013-03-12 05:15:00,26.0,21.8,29.84,West,281,4.7,9.6,84,0.00,BKN,,0.00,0.0,WeatherDisplay:10.37,2013-03-12 10:15:00,
2013-03-12 05:20:00,26.0,21.8,29.84,WNW,289,4.9,7.2,84,0.00,BKN,,0.00,0.0,WeatherDisplay:10.37,2013-03-12 10:20:00,
2013-03-12 05:25:00,25.8,21.6,29.84,West,281,2.5,8.1,84,0.00,BKN,,0.00,0.0,WeatherDisplay:10.37,2013-03-12 10:25:00,
2013-03-12 05:30:00,25.7,21.5,29.85,WNW,297,5.8,13.2,84,0.00,BKN,,0.00,0.0,WeatherDisplay:10.37,2013-03-12 10:30:00,
2013-03-12 05:35:00,25.7,21.5,29.85,WNW,291,4.7,8.1,84,0.00,BKN,,0.00,0.0,WeatherDisplay:10.37,2013-03-12 10:35:00,
2013-03-12 05:40:00,25.7,21.5,29.85,SW,235,5.2,8.4,84,0.00,SCT,,0.00,0.0,WeatherDisplay:10.37,2013-03-12 10:40:00,
2013-03-12 05:45:00,25.6,21.4,29.85,WNW,292,3.3,4.8,84,0.00,SCT,,0.00,0.0,WeatherDisplay:10.37,2013-03-12 10:45:00,
2013-03-12 05:50:00,25.6,21.2,29.85,WNW,288,7.1,16.1,83,0.00,SCT,,0.00,0.0,WeatherDisplay:10.37,2013-03-12 10:50:00,
2013-03-12 05:55:00,25.6,21.2,29.85,WSW,239,5.3,8.4,83,0.00,SCT,,0.00,0.0,WeatherDisplay:10.37,2013-03-12 10:55:00,
2013-03-12 06:00:00,25.6,21.2,29.86,WNW,287,4.6,6.9,83,0.00,BKN,,0.00,0.0,WeatherDisplay:10.37,2013-03-12 11:00:00,
2013-03-12 06:05:00,25.4,21.2,29.86,West,274,1.8,4.6,84,0.00,BKN,,0.00,0.0,WeatherDisplay:10.37,2013-03-12 11:05:00,
2013-03-12 06:10:00,25.4,21.2,29.86,WSW,241,2.9,6.0,84,0.00,BKN,,0.00,0.0,WeatherDisplay:10.37,2013-03-12 11:10:00,
2013-03-12 06:15:00,25.3,21.1,29.86,WSW,242,4.5,6.0,84,0.00,BKN,,0.00,0.0,WeatherDisplay:10.37,2013-03-12 11:15:00,
2013-03-12 06:20:00,25.0,20.8,29.86,West,271,7.1,9.6,84,0.00,OVC,,0.00,0.0,WeatherDisplay:10.37,2013-03-12 11:20:00,
2013-03-12 06:25:00,24.8,20.4,29.86,West,263,6.5,8.4,83,0.00,OVC,,0.00,0.0,WeatherDisplay:10.37,2013-03-12 11:25:00,
2013-03-12 06:30:00,24.7,20.3,29.86,West,264,5.4,8.1,83,0.00,OVC,,0.00,0.0,WeatherDisplay:10.37,2013-03-12 11:30:00,
2013-03-12 06:35:00,24.5,20.1,29.86,West,271,2.8,4.8,83,0.00,OVC,,0.00,0.0,WeatherDisplay:10.37,2013-03-12 11:35:00,
2013-03-12 06:40:00,24.4,20.3,29.86,West,268,0.5,3.6,84,0.00,OVC,,0.00,0.0,WeatherDisplay:10.37,2013-03-12 11:40:00,
2013-03-12 06:45:00,24.1,20.0,29.86,West,271,0.0,3.5,84,0.00,OVC,,0.00,0.0,WeatherDisplay:10.37,2013-03-12 11:45:00,
2013-03-12 06:50:00,23.9,19.8,29.86,West,274,3.2,4.8,84,0.00,OVC,,0.00,0.0,WeatherDisplay:10.37,2013-03-12 11:50:00,
2013-03-12 06:55:00,23.8,19.7,29.86,West,279,2.1,2.4,84,0.00,OVC,,0.00,0.0,WeatherDisplay:10.37,2013-03-12 11:55:00,
2013-03-12 07:00:00,23.6,19.8,29.86,WSW,253,1.0,2.4,85,0.00,OVC,,0.00,0.0,WeatherDisplay:10.37,2013-03-12 12:00:00,
2013-03-12 07:05:00,23.5,19.7,29.86,West,281,3.0,6.9,85,0.00,OVC,,0.00,0.0,WeatherDisplay:10.37,2013-03-12 12:05:00,
2013-03-12 07:10:00,23.3,19.5,29.86,West,260,0.7,3.6,85,0.00,OVC,,0.00,0.0,WeatherDisplay:10.37,2013-03-12 12:10:00,
2013-03-12 07:15:00,23.2,19.4,29.86,West,281,2.6,4.8,85,0.00,OVC,,0.00,0.0,WeatherDisplay:10.37,2013-03-12 12:15:00,
2013-03-12 07:20:00,23.0,19.4,29.86,West,281,1.3,3.6,86,0.00,OVC,,0.00,0.0,WeatherDisplay:10.37,2013-03-12 12:20:00,
2013-03-12 07:25:00,22.9,19.3,29.86,WSW,247,2.2,2.4,86,0.00,OVC,,0.00,5.0,WeatherDisplay:10.37,2013-03-12 12:25:00,
2013-03-12 07:30:00,22.7,19.1,29.86,WSW,256,1.2,3.6,86,0.00,OVC,,0.00,9.0,WeatherDisplay:10.37,2013-03-12 12:30:00,
2013-03-12 07:35:00,22.5,18.9,29.86,WSW,239,4.4,4.8,86,0.00,OVC,,0.00,14.0,WeatherDisplay:10.37,2013-03-12 12:35:00,
2013-03-12 07:40:00,22.5,19.2,29.86,SW,221,3.8,6.0,87,0.00,OVC,,0.00,33.0,WeatherDisplay:10.37,2013-03-12 12:40:00,
2013-03-12 07:45:00,22.5,18.9,29.86,WSW,245,3.9,8.4,86,0.00,OVC,,0.00,51.0,WeatherDisplay:10.37,2013-03-12 12:45:00,
2013-03-12 07:50:00,22.5,18.9,29.86,WSW,248,6.6,10.4,86,0.00,OVC,,0.00,54.0,WeatherDisplay:10.37,2013-03-12 12:50:00,
2013-03-12 07:55:00,22.7,19.1,29.86,WNW,288,3.7,6.0,86,0.00,OVC,,0.00,54.0,WeatherDisplay:10.37,2013-03-12 12:55:00,
2013-03-12 08:01:00,22.9,19.1,29.86,West,281,6.2,9.6,85,0.00,OVC,,0.00,51.0,WeatherDisplay:10.37,2013-03-12 13:01:00,
2013-03-12 08:06:00,22.9,19.3,29.86,WNW,290,3.0,4.8,86,0.00,OVC,,0.00,51.0,WeatherDisplay:10.37,2013-03-12 13:06:00,
2013-03-12 08:11:00,22.9,19.1,29.86,West,273,0.8,4.6,85,0.00,OVC,,0.00,56.0,WeatherDisplay:10.37,2013-03-12 13:11:00,
2013-03-12 08:16:00,22.9,19.1,29.87,West,266,2.2,6.0,85,0.00,OVC,,0.00,62.0,WeatherDisplay:10.37,2013-03-12 13:16:00,
2013-03-12 08:21:00,23.0,19.2,29.87,WSW,258,1.1,3.5,85,0.00,OVC,,0.00,67.0,WeatherDisplay:10.37,2013-03-12 13:21:00,
2013-03-12 08:26:00,23.0,19.2,29.87,WSW,246,5.6,9.2,85,0.00,OVC,,0.00,76.0,WeatherDisplay:10.37,2013-03-12 13:26:00,
2013-03-12 08:31:00,23.0,19.2,29.88,WSW,244,4.2,8.4,85,0.00,OVC,,0.00,88.0,WeatherDisplay:10.37,2013-03-12 13:31:00,
2013-03-12 08:36:00,22.9,19.1,29.88,WNW,290,6.8,8.4,85,0.00,OVC,,0.00,97.0,WeatherDisplay:10.37,2013-03-12 13:36:00,
2013-03-12 08:41:00,22.9,18.8,29.88,WSW,254,5.4,6.0,84,0.00,OVC,,0.00,102.0,WeatherDisplay:10.37,2013-03-12 13:41:00,
2013-03-12 08:46:00,22.9,18.8,29.89,WSW,254,3.8,8.4,84,0.00,OVC,,0.00,105.0,WeatherDisplay:10.37,2013-03-12 13:46:00,
2013-03-12 08:51:00,23.0,18.9,29.89,WSW,253,3.1,7.2,84,0.00,OVC,,0.00,113.0,WeatherDisplay:10.37,2013-03-12 13:51:00,
2013-03-12 08:56:00,23.2,19.1,29.89,WNW,294,0.9,3.6,84,0.00,OVC,,0.00,125.0,WeatherDisplay:10.37,2013-03-12 13:56:00,
2013-03-12 09:01:00,23.2,19.1,29.89,WSW,254,0.2,3.5,84,0.00,BKN,,0.00,134.0,WeatherDisplay:10.37,2013-03-12 14:01:00,
2013-03-12 09:06:00,23.2,19.1,29.89,WSW,248,3.2,6.9,84,0.00,BKN,,0.00,141.0,WeatherDisplay:10.37,2013-03-12 14:06:00,
2013-03-12 09:11:00,23.3,19.2,29.89,West,275,4.5,7.2,84,0.00,BKN,,0.00,148.0,WeatherDisplay:10.37,2013-03-12 14:11:00,
2013-03-12 09:16:00,23.3,19.2,29.89,WSW,255,2.8,4.8,84,0.00,BKN,,0.00,160.0,WeatherDisplay:10.37,2013-03-12 14:16:00,
2013-03-12 09:21:00,23.5,19.4,29.89,WSW,250,0.0,3.5,84,0.00,SCT,,0.00,179.0,WeatherDisplay:10.37,2013-03-12 14:21:00,
2013-03-12 09:26:00,23.6,19.2,29.89,West,279,2.4,4.8,83,0.00,SCT,,0.00,199.0,WeatherDisplay:10.37,2013-03-12 14:26:00,
2013-03-12 09:31:00,23.6,19.2,29.89,SW,227,5.4,7.2,83,0.00,SCT,,0.00,229.0,WeatherDisplay:10.37,2013-03-12 14:31:00,
2013-03-12 09:37:00,23.9,19.2,29.89,WNW,296,3.6,4.8,82,0.00,SCT,,0.00,229.0,WeatherDisplay:10.37,2013-03-12 14:37:00,
2013-03-12 09:42:00,23.9,19.2,29.89,WSW,248,7.3,10.8,82,0.00,-SN,,0.00,239.0,WeatherDisplay:10.37,2013-03-12 14:42:00,
2013-03-12 09:47:00,23.9,18.9,29.89,West,281,2.1,5.8,81,0.00,-SN,,0.00,246.0,WeatherDisplay:10.37,2013-03-12 14:47:00,
2013-03-12 09:52:00,24.1,19.1,29.89,West,277,5.9,9.6,81,0.00,-SN,,0.00,274.0,WeatherDisplay:10.37,2013-03-12 14:52:00,
2013-03-12 09:57:00,24.2,19.2,29.89,West,267,5.0,10.0,81,0.00,-SN,,0.00,276.0,WeatherDisplay:10.37,2013-03-12 14:57:00,
2013-03-12 10:02:00,24.4,19.1,29.89,WNW,288,4.2,4.8,80,0.00,-SN,,0.00,290.0,WeatherDisplay:10.37,2013-03-12 15:02:00,
2013-03-12 10:07:00,24.6,19.3,29.89,WNW,284,3.0,6.0,80,0.00,-SN,,0.00,330.0,WeatherDisplay:10.37,2013-03-12 15:07:00,
2013-03-12 10:12:00,24.5,19.2,29.89,NW,315,2.5,4.8,80,0.00,-SN,,0.00,309.0,WeatherDisplay:10.37,2013-03-12 15:12:00,
2013-03-12 10:17:00,24.7,19.4,29.89,West,279,1.8,4.8,80,0.00,-SN,,0.00,330.0,WeatherDisplay:10.37,2013-03-12 15:17:00,
2013-03-12 10:22:00,24.7,19.4,29.89,WNW,294,3.8,4.8,80,0.00,-SN,,0.00,350.0,WeatherDisplay:10.37,2013-03-12 15:22:00,
2013-03-12 10:27:00,24.8,19.2,29.89,WNW,300,6.6,9.6,79,0.00,-SN,,0.00,378.0,WeatherDisplay:10.37,2013-03-12 15:27:00,
2013-03-12 10:32:00,25.0,19.4,29.89,WSW,251,1.9,2.4,79,0.00,-SN,,0.00,408.0,WeatherDisplay:10.37,2013-03-12 15:32:00,
2013-03-12 10:37:00,25.0,19.4,29.89,West,259,4.0,9.6,79,0.00,-SN,,0.00,411.0,WeatherDisplay:10.37,2013-03-12 15:37:00,
2013-03-12 10:42:00,24.8,18.9,29.89,WSW,240,2.8,6.9,78,0.00,-SN,,0.00,397.0,WeatherDisplay:10.37,2013-03-12 15:42:00,
2013-03-12 10:47:00,25.1,19.2,29.89,WSW,238,2.5,4.8,78,0.00,-SN,,0.00,420.0,WeatherDisplay:10.37,2013-03-12 15:47:00,
2013-03-12 10:52:00,25.1,19.2,29.89,West,263,6.9,10.4,78,0.00,-SN,,0.00,411.0,WeatherDisplay:10.37,2013-03-12 15:52:00,
2013-03-12 10:57:00,25.4,19.5,29.89,WNW,290,5.3,6.0,78,0.00,-SN,,0.00,503.0,WeatherDisplay:10.37,2013-03-12 15:57:00,
2013-03-12 11:02:00,25.4,19.5,29.89,WNW,298,5.7,7.2,78,0.00,-SN,,0.00,304.0,WeatherDisplay:10.37,2013-03-12 16:02:00,
2013-03-12 11:07:00,25.4,19.5,29.89,West,279,7.1,9.6,78,0.00,-SN,,0.00,374.0,WeatherDisplay:10.37,2013-03-12 16:07:00,
2013-03-12 11:13:00,25.8,19.9,29.89,WSW,249,0.4,3.5,78,0.00,-SN,,0.00,301.0,WeatherDisplay:10.37,2013-03-12 16:13:00,
2013-03-12 11:18:00,26.0,19.8,29.90,WNW,294,4.1,6.0,77,0.00,-SN,,0.00,392.0,WeatherDisplay:10.37,2013-03-12 16:18:00,
2013-03-12 11:23:00,26.4,20.5,29.90,WSW,251,0.9,3.6,78,0.00,-SN,,0.00,343.0,WeatherDisplay:10.37,2013-03-12 16:23:00,
2013-03-12 11:28:00,26.1,19.9,29.90,WSW,253,3.2,6.9,77,0.00,-SN,,0.00,232.0,WeatherDisplay:10.37,2013-03-12 16:28:00,
2013-03-12 11:33:00,26.1,19.9,29.90,West,273,4.7,8.4,77,0.00,-SN,,0.00,301.0,WeatherDisplay:10.37,2013-03-12 16:33:00,
2013-03-12 11:38:00,26.1,19.9,29.90,WNW,293,5.9,8.4,77,0.00,-SN,,0.00,243.0,WeatherDisplay:10.37,2013-03-12 16:38:00,
2013-03-12 11:43:00,26.0,19.8,29.90,WNW,287,3.6,6.9,77,0.00,-SN,,0.00,316.0,WeatherDisplay:10.37,2013-03-12 16:43:00,
2013-03-12 11:48:00,26.3,20.4,29.90,WNW,298,2.6,4.8,78,0.00,-SN,,0.00,278.0,WeatherDisplay:10.37,2013-03-12 16:48:00,
2013-03-12 11:53:00,26.4,20.2,29.90,WNW,300,3.4,4.8,77,0.00,-SN,,0.00,292.0,WeatherDisplay:10.37,2013-03-12 16:53:00,
2013-03-12 11:58:00,26.4,20.2,29.90,West,277,5.9,8.4,77,0.00,-SN,,0.00,292.0,WeatherDisplay:10.37,2013-03-12 16:58:00,
2013-03-12 12:03:00,26.3,19.8,29.90,WNW,287,5.4,8.4,76,0.00,-SN,,0.00,318.0,WeatherDisplay:10.37,2013-03-12 17:03:00,
2013-03-12 12:08:00,26.3,20.1,29.90,WSW,256,8.1,10.8,77,0.01,-SN,,0.01,461.0,WeatherDisplay:10.37,2013-03-12 17:08:00,
2013-03-12 12:13:00,26.7,19.5,29.90,WNW,300,6.9,10.4,74,0.01,-SN,,0.01,499.0,WeatherDisplay:10.37,2013-03-12 17:13:00,
2013-03-12 12:18:00,27.3,20.4,29.91,NW,311,2.9,4.8,75,0.01,-SN,,0.01,383.0,WeatherDisplay:10.37,2013-03-12 17:18:00,
2013-03-12 12:23:00,27.3,20.1,29.91,NW,311,4.6,7.2,74,0.01,-SN,,0.01,302.0,WeatherDisplay:10.37,2013-03-12 17:23:00,
2013-03-12 12:28:00,27.0,19.5,29.91,WNW,296,7.6,14.4,73,0.01,-SN,,0.01,332.0,WeatherDisplay:10.37,2013-03-12 17:28:00,
2013-03-12 12:33:00,26.9,19.1,29.91,WSW,254,8.2,10.8,72,0.01,-SN,,0.01,360.0,WeatherDisplay:10.37,2013-03-12 17:33:00,
2013-03-12 12:38:00,27.5,19.7,29.91,WSW,254,4.8,9.2,72,0.01,-SN,,0.01,606.0,WeatherDisplay:10.37,2013-03-12 17:38:00,
2013-03-12 12:43:00,27.6,19.4,29.91,WNW,283,3.8,6.9,71,0.01,SCT,,0.01,385.0,WeatherDisplay:10.37,2013-03-12 17:43:00,
2013-03-12 12:48:00,27.8,19.9,29.91,West,273,7.7,10.8,72,0.01,SCT,,0.01,237.0,WeatherDisplay:10.37,2013-03-12 17:48:00,
2013-03-12 12:53:00,27.2,19.7,29.91,WNW,292,7.4,12.0,73,0.01,SCT,,0.01,265.0,WeatherDisplay:10.37,2013-03-12 17:53:00,
2013-03-12 12:58:00,27.2,20.0,29.91,WNW,284,6.6,8.4,74,0.01,SCT,,0.01,223.0,WeatherDisplay:10.37,2013-03-12 17:58:00,
2013-03-12 13:03:00,27.0,19.8,29.91,West,266,9.1,12.0,74,0.01,SCT,,0.01,320.0,WeatherDisplay:10.37,2013-03-12 18:03:00,
2013-03-12 13:08:00,27.0,19.5,29.91,WNW,299,7.7,16.1,73,0.00,SCT,,0.01,315.0,WeatherDisplay:10.37,2013-03-12 18:08:00,
2013-03-12 13:13:00,27.2,19.7,29.91,WNW,290,5.1,6.9,73,0.00,SCT,,0.01,336.0,WeatherDisplay:10.37,2013-03-12 18:13:00,
2013-03-12 13:18:00,27.3,19.8,29.91,WNW,284,5.0,7.2,73,0.00,SCT,,0.01,362.0,WeatherDisplay:10.37,2013-03-12 18:18:00,
2013-03-12 13:23:00,27.6,20.1,29.91,WNW,286,2.6,6.9,73,0.00,SCT,,0.01,369.0,WeatherDisplay:10.37,2013-03-12 18:23:00,
2013-03-12 13:28:00,27.6,19.8,29.91,West,279,6.5,8.4,72,0.00,SCT,,0.01,350.0,WeatherDisplay:10.37,2013-03-12 18:28:00,
2013-03-12 13:33:00,27.8,19.9,29.91,NW,310,6.7,7.2,72,0.00,SCT,,0.01,362.0,WeatherDisplay:10.37,2013-03-12 18:33:00,
2013-03-12 13:38:00,27.6,19.8,29.91,NW,306,4.3,8.1,72,0.00,SCT,,0.01,257.0,WeatherDisplay:10.37,2013-03-12 18:38:00,
2013-03-12 13:44:00,27.5,19.7,29.91,NW,321,7.3,9.2,72,0.00,-SN,,0.01,264.0,WeatherDisplay:10.37,2013-03-12 18:44:00,
2013-03-12 13:49:00,27.8,19.9,29.91,WNW,298,5.7,8.4,72,0.00,-SN,,0.01,608.0,WeatherDisplay:10.37,2013-03-12 18:49:00,
2013-03-12 13:54:00,28.2,19.3,29.91,WNW,283,6.1,10.8,69,0.00,-SN,,0.01,374.0,WeatherDisplay:10.37,2013-03-12 18:54:00,
2013-03-12 13:59:00,28.1,19.2,29.91,NW,322,8.8,10.8,69,0.00,-SN,,0.01,264.0,WeatherDisplay:10.37,2013-03-12 18:59:00,
2013-03-12 14:04:00,27.5,19.3,29.91,WNW,299,8.2,9.6,71,0.00,-SN,,0.01,253.0,WeatherDisplay:10.37,2013-03-12 19:04:00,
2013-03-12 14:09:00,27.5,20.3,29.91,West,268,4.8,7.2,74,0.00,-SN,,0.01,315.0,WeatherDisplay:10.37,2013-03-12 19:09:00,
2013-03-12 14:14:00,27.5,19.7,29.91,NW,306,7.2,9.6,72,0.00,SCT,,0.01,306.0,WeatherDisplay:10.37,2013-03-12 19:14:00,
2013-03-12 14:19:00,27.6,19.4,29.91,West,279,7.6,10.4,71,0.00,SCT,,0.01,325.0,WeatherDisplay:10.37,2013-03-12 19:19:00,
2013-03-12 14:24:00,27.6,19.4,29.91,NW,308,5.9,8.4,71,0.00,-SN,,0.01,301.0,WeatherDisplay:10.37,2013-03-12 19:24:00,
2013-03-12 14:29:00,27.8,19.6,29.91,West,277,7.6,10.4,71,0.00,-SN,,0.01,399.0,WeatherDisplay:10.37,2013-03-12 19:29:00,
2013-03-12 14:34:00,27.8,18.9,29.91,WNW,295,9.3,10.8,69,0.00,-SN,,0.01,278.0,WeatherDisplay:10.37,2013-03-12 19:34:00,
2013-03-12 14:39:00,27.9,19.4,29.91,WNW,286,6.0,8.1,70,0.00,-SN,,0.01,302.0,WeatherDisplay:10.37,2013-03-12 19:39:00,
2013-03-12 14:44:00,28.1,19.6,29.91,NW,309,9.0,12.0,70,0.00,-SN,,0.01,367.0,WeatherDisplay:10.37,2013-03-12 19:44:00,
2013-03-12 14:49:00,27.8,18.9,29.91,NW,313,9.2,9.6,69,0.00,-SN,,0.01,360.0,WeatherDisplay:10.37,2013-03-12 19:49:00,
2013-03-12 14:54:00,27.8,19.3,29.91,West,263,9.5,16.1,70,0.00,-SN,,0.01,364.0,WeatherDisplay:10.37,2013-03-12 19:54:00,
2013-03-12 14:59:00,27.8,19.3,29.91,WNW,299,11.2,13.2,70,0.00,-SN,,0.01,596.0,WeatherDisplay:10.37,2013-03-12 19:59:00,
2013-03-12 15:04:00,28.2,19.7,29.91,West,276,10.9,12.0,70,0.00,SCT,,0.01,343.0,WeatherDisplay:10.37,2013-03-12 20:04:00,
2013-03-12 15:09:00,28.1,19.6,29.91,West,261,12.0,16.8,70,0.00,SCT,,0.01,332.0,WeatherDisplay:10.37,2013-03-12 20:09:00,
2013-03-12 15:14:00,28.1,19.9,29.91,NW,305,5.1,7.2,71,0.00,SCT,,0.01,301.0,WeatherDisplay:10.37,2013-03-12 20:14:00,
2013-03-12 15:19:00,28.1,19.9,29.91,WNW,286,3.4,7.2,71,0.00,SCT,,0.01,179.0,WeatherDisplay:10.37,2013-03-12 20:19:00,
2013-03-12 15:24:00,27.9,20.0,29.91,NW,305,7.8,15.0,72,0.00,CLR,,0.01,135.0,WeatherDisplay:10.37,2013-03-12 20:24:00,
2013-03-12 15:29:00,27.5,20.6,29.91,WNW,291,8.7,10.8,75,0.00,CLR,,0.01,251.0,WeatherDisplay:10.37,2013-03-12 20:29:00,
2013-03-12 15:34:00,27.8,20.9,29.92,WNW,303,7.7,9.6,75,0.00,CLR,,0.01,334.0,WeatherDisplay:10.37,2013-03-12 20:34:00,
2013-03-12 15:39:00,28.1,21.2,29.92,West,272,5.9,8.4,75,0.00,CLR,,0.01,179.0,WeatherDisplay:10.37,2013-03-12 20:39:00,
2013-03-12 15:44:00,27.9,20.7,29.92,WSW,250,10.0,12.0,74,0.00,-SN,,0.01,193.0,WeatherDisplay:10.37,2013-03-12 20:44:00,
2013-03-12 15:49:00,27.9,20.4,29.92,WNW,300,9.6,15.0,73,0.00,-SN,,0.01,218.0,WeatherDisplay:10.37,2013-03-12 20:49:00,
2013-03-12 15:54:00,27.8,19.9,29.92,NW,306,5.3,8.4,72,0.00,-SN,,0.01,204.0,WeatherDisplay:10.37,2013-03-12 20:54:00,
2013-03-12 15:59:00,27.6,20.1,29.92,WNW,292,5.1,8.4,73,0.00,-SN,,0.01,262.0,WeatherDisplay:10.37,2013-03-12 20:59:00,
2013-03-12 16:04:00,27.8,20.3,29.92,NW,307,6.2,7.2,73,0.00,-SN,,0.01,376.0,WeatherDisplay:10.37,2013-03-12 21:04:00,
2013-03-12 16:09:00,28.1,20.2,29.92,NW,311,8.4,12.0,72,0.00,-SN,,0.01,302.0,WeatherDisplay:10.37,2013-03-12 21:09:00,
2013-03-12 16:14:00,27.9,19.7,29.92,NW,317,3.6,7.2,71,0.00,-SN,,0.01,162.0,WeatherDisplay:10.37,2013-03-12 21:14:00,
2013-03-12 16:19:00,28.1,20.2,29.92,West,275,8.1,10.8,72,0.00,-SN,,0.01,181.0,WeatherDisplay:10.37,2013-03-12 21:19:00,
2013-03-12 16:24:00,27.9,19.7,29.92,NW,314,6.1,8.4,71,0.00,-SN,,0.01,174.0,WeatherDisplay:10.37,2013-03-12 21:24:00,
2013-03-12 16:29:00,27.8,19.6,29.93,NW,311,6.4,9.6,71,0.00,-SN,,0.01,178.0,WeatherDisplay:10.37,2013-03-12 21:29:00,
2013-03-12 16:34:00,27.9,19.7,29.93,WNW,285,9.5,10.8,71,0.00,-SN,,0.01,178.0,WeatherDisplay:10.37,2013-03-12 21:34:00,
2013-03-12 16:39:00,27.8,19.6,29.93,WNW,302,7.8,12.0,71,0.00,-SN,,0.01,243.0,WeatherDisplay:10.37,2013-03-12 21:39:00,
2013-03-12 16:44:00,27.9,19.7,29.93,WNW,297,4.9,9.2,71,0.00,SCT,,0.01,188.0,WeatherDisplay:10.37,2013-03-12 21:44:00,
2013-03-12 16:49:00,27.9,19.7,29.93,WNW,288,8.4,10.8,71,0.00,SCT,,0.01,176.0,WeatherDisplay:10.37,2013-03-12 21:49:00,
2013-03-12 16:54:00,28.1,20.2,29.93,West,279,8.0,10.8,72,0.00,SCT,,0.01,179.0,WeatherDisplay:10.37,2013-03-12 21:54:00,
2013-03-12 16:59:00,27.9,20.0,29.93,WNW,300,4.0,11.5,72,0.00,SCT,,0.01,185.0,WeatherDisplay:10.37,2013-03-12 21:59:00,
2013-03-12 17:04:00,27.9,20.4,29.93,West,279,5.3,9.2,73,0.00,SCT,,0.01,160.0,WeatherDisplay:10.37,2013-03-12 22:04:00,
2013-03-12 17:09:00,28.1,20.6,29.93,NW,321,5.1,8.4,73,0.00,SCT,,0.01,176.0,WeatherDisplay:10.37,2013-03-12 22:09:00,
2013-03-12 17:14:00,28.1,20.2,29.93,West,276,9.2,12.0,72,0.00,SCT,,0.01,172.0,WeatherDisplay:10.37,2013-03-12 22:14:00,
2013-03-12 17:19:00,28.2,20.3,29.94,WNW,286,4.1,4.8,72,0.00,SCT,,0.01,216.0,WeatherDisplay:10.37,2013-03-12 22:19:00,
2013-03-12 17:24:00,28.4,20.5,29.94,NW,323,5.3,11.5,72,0.00,-SN,,0.01,105.0,WeatherDisplay:10.37,2013-03-12 22:24:00,
2013-03-12 17:29:00,28.4,20.5,29.94,NW,313,5.5,8.4,72,0.00,-SN,,0.01,93.0,WeatherDisplay:10.37,2013-03-12 22:29:00,
2013-03-12 17:34:00,27.9,20.0,29.94,NW,320,7.3,12.0,72,0.00,-SN,,0.01,51.0,WeatherDisplay:10.37,2013-03-12 22:34:00,
2013-03-12 17:39:00,27.5,20.6,29.94,NW,321,6.7,11.5,75,0.00,-SN,,0.01,102.0,WeatherDisplay:10.37,2013-03-12 22:39:00,
2013-03-12 17:44:00,27.5,21.2,29.94,West,272,5.6,9.2,77,0.00,-SN,,0.01,121.0,WeatherDisplay:10.37,2013-03-12 22:44:00,
2013-03-12 17:49:00,27.6,21.3,29.95,NW,323,5.5,6.0,77,0.00,-SN,,0.01,95.0,WeatherDisplay:10.37,2013-03-12 22:49:00,
2013-03-12 17:54:00,27.6,21.0,29.95,WNW,283,6.2,9.2,76,0.00,-SN,,0.01,104.0,WeatherDisplay:10.37,2013-03-12 22:54:00,
2013-03-12 17:59:00,27.8,20.9,29.95,WNW,283,3.4,6.9,75,0.00,-SN,,0.01,169.0,WeatherDisplay:10.37,2013-03-12 22:59:00,
2013-03-12 18:04:00,27.9,21.0,29.95,WNW,295,3.7,6.0,75,0.00,-SN,,0.01,100.0,WeatherDisplay:10.37,2013-03-12 23:04:00,
2013-03-12 18:09:00,27.8,19.9,29.95,WNW,286,7.5,10.4,72,0.00,-SN,,0.01,83.0,WeatherDisplay:10.37,2013-03-12 23:09:00,
2013-03-12 18:14:00,27.8,19.6,29.95,WNW,285,8.3,12.7,71,0.00,-SN,,0.01,81.0,WeatherDisplay:10.37,2013-03-12 23:14:00,
2013-03-12 18:19:00,27.8,19.3,29.96,West,267,8.4,10.8,70,0.00,-SN,,0.01,67.0,WeatherDisplay:10.37,2013-03-12 23:19:00,
2013-03-12 18:24:00,27.8,19.3,29.96,WNW,287,5.9,10.4,70,0.00,SCT,,0.01,56.0,WeatherDisplay:10.37,2013-03-12 23:24:00,
2013-03-12 18:29:00,27.6,19.1,29.96,WNW,289,7.3,10.8,70,0.00,SCT,,0.01,51.0,WeatherDisplay:10.37,2013-03-12 23:29:00,
2013-03-12 18:34:00,27.5,18.7,29.97,NW,309,4.1,6.0,69,0.00,SCT,,0.01,37.0,WeatherDisplay:10.37,2013-03-12 23:34:00,
2013-03-12 18:39:00,27.3,18.8,29.97,NW,317,9.6,15.6,70,0.00,SCT,,0.01,30.0,WeatherDisplay:10.37,2013-03-12 23:39:00,
2013-03-12 18:44:00,27.2,18.7,29.97,WNW,290,9.9,12.0,70,0.00,SCT,,0.01,25.0,WeatherDisplay:10.37,2013-03-12 23:44:00,
2013-03-12 18:49:00,27.0,18.8,29.97,West,272,9.4,12.0,71,0.00,SCT,,0.01,16.0,WeatherDisplay:10.37,2013-03-12 23:49:00,
2013-03-12 18:54:00,26.9,19.1,29.97,NW,311,8.0,8.4,72,0.00,SCT,,0.01,11.0,WeatherDisplay:10.37,2013-03-12 23:54:00,
2013-03-12 18:59:00,26.9,18.7,29.97,WNW,286,8.5,11.5,71,0.00,SCT,,0.01,5.0,WeatherDisplay:10.37,2013-03-12 23:59:00,
2013-03-12 19:04:00,26.9,18.7,29.98,NW,313,6.8,10.8,71,0.00,SCT,,0.01,0.0,WeatherDisplay:10.37,2013-03-13 00:04:00,
2013-03-12 19:09:00,26.9,18.4,29.98,WNW,296,5.9,9.6,70,0.00,SCT,,0.01,0.0,WeatherDisplay:10.37,2013-03-13 00:09:00,
2013-03-12 19:14:00,26.9,18.1,29.98,WNW,282,5.0,12.0,69,0.00,SCT,,0.01,0.0,WeatherDisplay:10.37,2013-03-13 00:14:00,
2013-03-12 19:19:00,26.7,17.6,29.99,WNW,298,6.0,9.6,68,0.00,SCT,,0.01,0.0,WeatherDisplay:10.37,2013-03-13 00:19:00,
2013-03-12 19:24:00,26.7,17.2,29.99,WNW,294,5.9,7.2,67,0.00,BKN,,0.01,0.0,WeatherDisplay:10.37,2013-03-13 00:24:00,
2013-03-12 19:29:00,26.6,17.1,29.99,WNW,301,10.9,12.0,67,0.00,BKN,,0.01,0.0,WeatherDisplay:10.37,2013-03-13 00:29:00,
2013-03-12 19:34:00,26.6,17.5,29.99,WNW,293,3.9,8.4,68,0.00,BKN,,0.01,0.0,WeatherDisplay:10.37,2013-03-13 00:34:00,
2013-03-12 19:39:00,26.6,17.1,29.99,WNW,294,1.1,6.0,67,0.00,BKN,,0.01,0.0,WeatherDisplay:10.37,2013-03-13 00:39:00,
2013-03-12 19:44:00,26.4,16.9,29.99,WNW,283,6.4,8.4,67,0.00,BKN,,0.01,0.0,WeatherDisplay:10.37,2013-03-13 00:44:00,
2013-03-12 19:49:00,26.4,16.9,29.99,WNW,302,0.9,4.6,67,0.00,BKN,,0.01,0.0,WeatherDisplay:10.37,2013-03-13 00:49:00,
2013-03-12 19:54:00,26.3,17.2,29.99,West,279,1.8,4.8,68,0.00,BKN,,0.01,0.0,WeatherDisplay:10.37,2013-03-13 00:54:00,
2013-03-12 19:59:00,26.3,17.5,29.99,NW,311,3.5,8.1,69,0.00,BKN,,0.01,0.0,WeatherDisplay:10.37,2013-03-13 00:59:00,
2013-03-12 20:04:00,26.1,17.3,30.00,West,280,6.6,8.4,69,0.00,BKN,,0.01,0.0,WeatherDisplay:10.37,2013-03-13 01:04:00,
2013-03-12 20:09:00,26.1,17.0,30.00,WNW,294,5.0,6.0,68,0.00,BKN,,0.01,0.0,WeatherDisplay:10.37,2013-03-13 01:09:00,
2013-03-12 20:14:00,26.1,17.3,30.00,WSW,246,1.8,4.8,69,0.00,BKN,,0.01,0.0,WeatherDisplay:10.37,2013-03-13 01:14:00,
2013-03-12 20:19:00,26.0,17.2,30.00,West,267,7.7,12.0,69,0.00,BKN,,0.01,0.0,WeatherDisplay:10.37,2013-03-13 01:19:00,
2013-03-12 20:24:00,26.0,17.2,30.00,West,278,5.3,8.4,69,0.00,BKN,,0.01,0.0,WeatherDisplay:10.37,2013-03-13 01:24:00,
2013-03-12 20:29:00,25.8,17.0,30.00,West,277,4.2,8.1,69,0.00,BKN,,0.01,0.0,WeatherDisplay:10.37,2013-03-13 01:29:00,
2013-03-12 20:34:00,25.8,17.0,30.01,WNW,286,6.3,10.8,69,0.00,BKN,,0.01,0.0,WeatherDisplay:10.37,2013-03-13 01:34:00,
2013-03-12 20:39:00,25.8,16.7,30.01,WNW,282,5.4,9.6,68,0.00,BKN,,0.01,0.0,WeatherDisplay:10.37,2013-03-13 01:39:00,
2013-03-12 20:44:00,25.8,16.7,30.02,NW,306,1.3,4.6,68,0.00,BKN,,0.01,0.0,WeatherDisplay:10.37,2013-03-13 01:44:00,
2013-03-12 20:49:00,25.7,16.3,30.02,West,281,6.4,9.6,67,0.00,BKN,,0.01,0.0,WeatherDisplay:10.37,2013-03-13 01:49:00,
2013-03-12 20:54:00,25.7,16.3,30.02,WNW,286,3.9,12.7,67,0.00,BKN,,0.01,0.0,WeatherDisplay:10.37,2013-03-13 01:54:00,
2013-03-12 20:59:00,25.7,16.3,30.02,NW,311,5.3,8.4,67,0.00,BKN,,0.01,0.0,WeatherDisplay:10.37,2013-03-13 01:59:00,
2013-03-12 21:04:00,25.7,16.3,30.02,West,277,5.1,7.2,67,0.00,OVC,,0.01,0.0,WeatherDisplay:10.37,2013-03-13 02:04:00,
2013-03-12 21:09:00,25.7,16.3,30.02,WNW,299,6.0,15.0,67,0.00,OVC,,0.01,0.0,WeatherDisplay:10.37,2013-03-13 02:09:00,
2013-03-12 21:14:00,25.7,15.9,30.02,WNW,303,5.7,9.2,66,0.00,OVC,,0.01,0.0,WeatherDisplay:10.37,2013-03-13 02:14:00,
2013-03-12 21:19:00,25.6,15.8,30.02,West,277,5.2,8.4,66,0.00,OVC,,0.01,0.0,WeatherDisplay:10.37,2013-03-13 02:19:00,
2013-03-12 21:24:00,25.6,16.2,30.02,WNW,286,3.5,4.8,67,0.00,OVC,,0.01,0.0,WeatherDisplay:10.37,2013-03-13 02:24:00,
2013-03-12 21:29:00,25.6,16.2,30.02,WNW,293,7.4,10.8,67,0.00,OVC,,0.01,0.0,WeatherDisplay:10.37,2013-03-13 02:29:00,
2013-03-12 21:34:00,25.4,16.0,30.02,West,276,6.5,10.8,67,0.00,OVC,,0.01,0.0,WeatherDisplay:10.37,2013-03-13 02:34:00,
2013-03-12 21:39:00,25.4,15.6,30.02,West,277,4.6,8.4,66,0.00,OVC,,0.01,0.0,WeatherDisplay:10.37,2013-03-13 02:39:00,
2013-03-12 21:44:00,25.4,16.0,30.02,WNW,286,6.9,8.4,67,0.00,OVC,,0.01,0.0,WeatherDisplay:10.37,2013-03-13 02:44:00,
2013-03-12 21:49:00,25.4,16.0,30.04,WNW,292,8.4,10.8,67,0.00,OVC,,0.01,0.0,WeatherDisplay:10.37,2013-03-13 02:49:00,
2013-03-12 21:54:00,25.4,16.0,30.04,WNW,288,10.5,15.0,67,0.00,OVC,,0.01,0.0,WeatherDisplay:10.37,2013-03-13 02:54:00,
2013-03-12 21:59:00,25.4,16.0,30.04,NW,323,7.5,15.0,67,0.00,OVC,,0.01,0.0,WeatherDisplay:10.37,2013-03-13 02:59:00,
2013-03-12 22:04:00,25.4,16.0,30.04,NW,325,8.7,14.4,67,0.00,OVC,,0.01,0.0,WeatherDisplay:10.37,2013-03-13 03:04:00,
2013-03-12 22:09:00,25.3,16.5,30.04,NW,326,6.0,9.6,69,0.00,OVC,,0.01,0.0,WeatherDisplay:10.37,2013-03-13 03:09:00,
2013-03-12 22:14:00,25.1,16.7,30.04,NW,311,5.8,9.6,70,0.00,OVC,,0.01,0.0,WeatherDisplay:10.37,2013-03-13 03:14:00,
2013-03-12 22:19:00,25.0,16.9,30.05,NNW,335,7.7,12.0,71,0.00,OVC,,0.01,0.0,WeatherDisplay:10.37,2013-03-13 03:19:00,
2013-03-12 22:24:00,25.0,17.2,30.05,NW,323,7.4,9.6,72,0.00,SCT,,0.01,0.0,WeatherDisplay:10.37,2013-03-13 03:24:00,
2013-03-12 22:29:00,24.8,17.4,30.05,WNW,299,3.9,4.8,73,0.00,SCT,,0.01,0.0,WeatherDisplay:10.37,2013-03-13 03:29:00,
2013-03-12 22:34:00,24.8,17.7,30.05,NW,313,7.4,8.4,74,0.00,SCT,,0.01,0.0,WeatherDisplay:10.37,2013-03-13 03:34:00,
2013-03-12 22:39:00,24.7,17.6,30.05,NNW,338,3.0,9.2,74,0.00,SCT,,0.01,0.0,WeatherDisplay:10.37,2013-03-13 03:39:00,
2013-03-12 22:44:00,24.7,17.6,30.05,WNW,302,3.0,9.2,74,0.00,SCT,,0.01,0.0,WeatherDisplay:10.37,2013-03-13 03:44:00,
2013-03-12 22:49:00,24.5,18.0,30.06,NW,319,5.8,7.2,76,0.00,SCT,,0.01,0.0,WeatherDisplay:10.37,2013-03-13 03:49:00,
2013-03-12 22:54:00,24.4,17.9,30.06,NW,320,3.9,8.1,76,0.00,SCT,,0.01,0.0,WeatherDisplay:10.37,2013-03-13 03:54:00,
2013-03-12 22:59:00,24.2,18.0,30.07,NW,304,5.6,9.2,77,0.00,SCT,,0.01,0.0,WeatherDisplay:10.37,2013-03-13 03:59:00,
2013-03-12 23:00:00,24.2,18.0,30.07,NW,304,5.6,9.2,77,0.00,SCT,,0.01,0.0,WeatherDisplay:10.37,2013-03-13 04:00:00,
2013-03-12 23:01:00,24.2,18.0,30.07,NW,304,3.9,6.0,77,0.00,-SN,,0.01,0.0,WeatherDisplay:10.37,2013-03-13 04:01:00,
2013-03-12 23:06:00,24.1,18.2,30.07,NW,323,3.3,4.8,78,0.00,-SN,,0.01,0.0,WeatherDisplay:10.37,2013-03-13 04:06:00,
2013-03-12 23:11:00,24.1,18.5,30.07,NW,313,7.2,8.4,79,0.00,-SN,,0.01,0.0,WeatherDisplay:10.37,2013-03-13 04:11:00,
2013-03-12 23:16:00,23.5,17.9,30.08,NNE,22,4.8,8.1,79,0.00,-SN,,0.01,0.0,WeatherDisplay:10.37,2013-03-13 04:16:00,
2013-03-12 23:22:00,23.0,17.2,30.08,NNE,12,5.0,12.0,78,0.00,-SN,,0.01,0.0,WeatherDisplay:10.37,2013-03-13 04:22:00,
2013-03-12 23:27:00,22.7,16.9,30.08,NNE,16,7.0,13.0,78,0.00,-SN,,0.01,0.0,WeatherDisplay:10.37,2013-03-13 04:27:00,
2013-03-12 23:32:00,22.4,16.6,30.09,North,349,7.0,7.0,78,0.00,-SN,,0.01,0.0,WeatherDisplay:10.37,2013-03-13 04:32:00,
2013-03-12 23:37:00,22.2,16.7,30.09,NNW,344,3.2,6.9,79,0.00,-SN,,0.01,0.0,WeatherDisplay:10.37,2013-03-13 04:37:00,
2013-03-12 23:42:00,22.1,16.9,30.09,NNW,339,6.2,8.4,80,0.00,BKN,,0.01,0.0,WeatherDisplay:10.37,2013-03-13 04:42:00,
2013-03-12 23:47:00,21.9,16.7,30.09,NW,320,1.4,3.6,80,0.00,BKN,,0.01,0.0,WeatherDisplay:10.37,2013-03-13 04:47:00,
2013-03-12 23:52:00,21.9,16.7,30.09,North,350,2.1,7.2,80,0.00,BKN,,0.01,0.0,WeatherDisplay:10.37,2013-03-13 04:52:00,
2013-03-12 23:57:00,21.9,16.7,30.09,NW,310,1.6,3.6,80,0.00,BKN,,0.01,0.0,WeatherDisplay:10.37,2013-03-13 04:57:00,